[[{"header":{"parameterUnit":"m.s-1","parameterCategory":1,"la1":30.2991,"la2":30.254,"lo1":-89.0895,"lo2":-89.0444,"dy":0.0017,"dx":0.0017,"nx":28,"ny":28,"refTime":"2023-08-17T21:00:00:Z","depth":0,"parameterNumber":2,"parameterNumberName":"U-component_of_WINDS"},"data":[0,0,0,0,0,0,0,0,0,0,0,0,0,0,0,0,0,0,0,0,0,0,0,0,0,0,0,0,0,0,0,0,0,0,0,0,0,0,0,0,0,0,0,0,0,0,0,0,0,0,0,0,0,0,0,0,0,0,4.6325,4.6327,0,4.646,4.6461,4.6463,4.6389,4.6385,4.6382,4.6378,4.6516,4.6523,4.653,0,0,0,0,0,0,0,0,0,0,0,0,0,4.6004,4.601,4.6325,4.6327,4.6329,4.6459,4.6461,4.6463,4.639,4.6385,4.6381,4.6377,4.6514,4.6522,4.6531,0,0,0,0,0,0,0,0,0,0,0,0,0,4.6141,4.6012,4.6325,4.6308,4.6308,4.6459,4.6461,4.6464,4.6391,4.6385,4.638,4.6375,4.6511,4.6522,4.6532,4.6708,0,0,4.6565,4.6569,0,0,0,0,0,0,0,0,4.6134,4.6153,4.6309,4.6309,4.6309,4.6402,4.6398,4.6546,4.6392,4.6359,4.6378,4.6372,4.6483,4.6495,4.6533,4.6715,4.6721,4.6566,4.6572,4.6577,4.658,0,0,0,0,0,0,0,4.6124,4.6147,4.6378,4.6311,4.6311,4.6293,4.6306,4.6426,4.645,4.6362,4.6357,4.6373,4.6482,4.6523,4.6535,4.6723,4.6565,4.6575,4.6581,4.6586,4.7053,4.7059,0,0,0,0,0,0,4.6116,4.614,4.6374,4.6382,4.6206,4.6303,4.6318,4.6378,4.6449,4.6454,4.6378,4.637,4.6507,4.6523,4.654,4.6749,4.6577,4.6587,4.6593,4.7047,4.7054,4.7061,0,0,0,0,0,0,4.6109,4.6138,4.6369,4.626,4.6288,4.6315,4.6382,4.6383,4.6424,4.6461,4.6465,4.6415,4.6503,4.6525,4.6666,4.6752,4.6591,4.6601,4.704,4.7049,4.7058,4.7169,0,0,0,0,0,0,4.61,4.6136,4.6203,4.6262,4.6294,4.6493,4.6388,4.639,4.6443,4.6433,4.6497,4.6503,4.6501,4.6651,4.6677,4.6764,4.6609,4.7032,4.7044,4.7055,4.7157,4.718,4.72,0,0,0,0,0,4.6089,4.623,4.6207,4.6236,4.6379,4.6499,4.6517,4.6512,4.645,4.6517,4.6541,4.6501,4.6739,4.6666,4.6695,4.6786,4.7027,4.7041,4.7054,4.7148,4.7176,4.72,0,0,0,0,0,0,4.6181,4.6237,4.6213,4.6377,4.6433,4.6486,4.6571,4.6542,4.6618,4.6605,4.6596,4.6611,4.6758,4.6786,4.6704,4.6959,4.6873,4.6893,4.6935,4.6962,4.6983,4.6972,4.6618,0,0,0,0,0,4.6221,4.6313,4.6357,4.6498,4.6527,4.6545,4.6597,4.6588,4.6646,4.667,4.6704,4.6762,4.6849,4.6907,4.6991,4.7162,4.7173,4.7239,4.726,4.7277,4.7294,4.7384,4.7413,4.7105,4.7105,4.7105,0,0,4.6303,4.6345,4.6404,4.6517,4.656,4.6655,4.6565,4.6671,4.6741,4.6686,4.682,4.6847,4.6912,4.7068,4.7138,4.7096,4.7382,4.7295,4.7308,4.7316,4.7401,4.743,4.7456,4.7114,4.7113,4.7111,0,0,4.6501,4.6544,4.6664,4.6708,4.6774,4.6784,4.6813,4.687,4.6885,4.702,4.698,4.7064,4.7216,4.7262,4.7306,4.752,4.7484,4.7547,4.7658,4.7746,4.777,4.7791,4.7865,4.7892,4.7564,4.7565,4.7565,0,4.6595,4.6737,4.6729,4.6837,4.6887,4.6841,4.6961,4.7005,4.7095,4.713,4.7082,4.727,4.731,4.7475,4.7527,4.7565,4.7596,4.7539,4.7767,4.7788,4.7808,4.7878,4.7907,4.7572,4.7571,4.757,4.7569,0,4.6848,4.6947,4.7036,4.7123,4.7183,4.7297,4.7305,4.7367,4.7353,4.7368,4.7505,4.7551,4.7642,4.7681,4.7668,4.7844,4.7815,4.7768,4.768,4.7845,4.791,4.7937,4.7582,4.7579,4.7577,4.7575,0,0,4.7108,4.7188,4.722,4.7258,4.7326,4.7402,4.7514,4.7601,4.7653,4.7717,4.7808,4.7937,4.7893,4.7942,4.7935,4.8012,4.8175,4.7954,4.7956,4.7992,4.8368,4.8401,4.8433,4.8153,4.8158,4.8162,4.8361,0,4.7309,4.7502,4.7498,4.7677,4.7767,4.7724,4.7821,4.7873,4.789,4.7968,4.7987,4.8077,4.8013,4.8042,4.8117,4.8139,4.825,4.8125,4.8236,4.824,4.8219,4.8468,4.8504,4.869,4.8387,4.8392,4.8395,0,4.7569,4.7639,4.7828,4.788,4.7918,4.8005,4.8083,4.816,4.8217,4.8223,4.8278,4.8258,4.8369,4.828,4.8433,4.8348,4.8393,4.8411,4.8418,4.8426,4.8326,4.848,4.875,4.8777,4.8436,4.8433,4.843,0,4.7736,4.7878,4.8009,4.8043,4.8108,4.817,4.82,4.8252,4.8304,4.8373,4.8406,4.8488,4.8532,4.8595,4.8597,4.8533,4.875,4.8662,4.8757,4.8757,4.8803,4.88,4.9081,4.8837,4.8836,4.8836,4.8835,0,4.7959,4.8076,4.8084,4.8164,4.8293,4.8286,4.8413,4.8437,4.8484,4.8567,4.8536,4.8614,4.8613,4.8692,4.8695,4.8819,4.884,4.8847,4.8846,4.8849,4.8847,4.8877,4.8863,4.8843,4.8842,4.884,4.8839,0,4.8167,4.8178,4.8317,4.8367,4.8382,4.8475,4.8517,4.8593,4.8606,4.8712,4.8736,4.8758,4.885,4.8858,4.8965,4.8966,4.9116,4.9102,4.9096,4.9093,4.9186,4.9176,4.9494,4.9535,4.9266,4.9269,4.9271,0,4.8308,4.8396,4.8455,4.8508,4.8542,4.8628,4.8681,4.8677,4.8733,4.8804,4.8871,4.8959,4.903,4.9179,4.9204,4.9285,4.9271,4.9377,4.9283,4.9282,4.9269,4.9263,4.9271,4.9394,4.9397,4.94,4.9402,0,4.8556,4.8556,4.8633,4.8712,4.8775,4.8837,4.8895,4.8941,4.8944,4.9008,4.9101,4.9156,4.9264,4.9352,4.9431,4.9461,4.9432,4.9431,4.9457,4.946,4.9451,4.9454,4.9143,4.9424,4.9421,4.942,4.9419,4.9418,4.8733,4.8808,4.8861,4.8947,4.899,4.9044,4.9116,4.9138,4.9216,4.9303,4.9297,4.9399,4.9452,4.9555,4.9592,4.9671,4.9635,4.9673,4.9683,4.9692,4.97,4.9441,4.9686,4.9685,4.9685,4.9684,4.9684,0,4.8977,4.9008,4.9087,4.9168,4.9236,4.9202,4.9264,4.9322,4.9412,4.9464,4.9534,4.964,4.9724,4.9755,4.9837,4.9895,4.9883,4.9916,4.9911,4.9917,4.9728,4.9697,4.9924,4.9924,4.9924,4.9924,4.9924,4.9924,4.9111,4.9236,4.9242,4.9387,4.9417,4.9517,4.9555,4.9604,4.9645,4.9764,4.9834,4.9853,4.9896,4.9981,5.0056,5.0063,5.0094,5.0132,5.0133,4.9956,4.9931,4.9908,4.9878,5.014,5.014,5.0315,5.0317,5.0318]},{"header":{"parameterUnit":"m.s-1","parameterCategory":1,"la1":30.2991,"la2":30.254,"lo1":-89.0895,"lo2":-89.0444,"dy":0.0017,"dx":0.0017,"nx":28,"ny":28,"refTime":"2023-08-17T21:00:00:Z","depth":0,"parameterNumber":3,"parameterNumberName":"V-component_of_WINDS"},"data":[0,0,0,0,0,0,0,0,0,0,0,0,0,0,0,0,0,0,0,0,0,0,0,0,0,0,0,0,0,0,0,0,0,0,0,0,0,0,0,0,0,0,0,0,0,0,0,0,0,0,0,0,0,0,0,0,0,0,1.2133,1.2134,0,1.2255,1.2256,1.2258,1.2296,1.2295,1.2295,1.2294,1.2419,1.2423,1.2427,0,0,0,0,0,0,0,0,0,0,0,0,0,1.1931,1.1934,1.2132,1.2134,1.2136,1.2255,1.2256,1.2258,1.2296,1.2295,1.2295,1.2294,1.2418,1.2422,1.2427,0,0,0,0,0,0,0,0,0,0,0,0,0,1.2032,1.1936,1.2132,1.2169,1.2173,1.2254,1.2256,1.2258,1.2296,1.2295,1.2295,1.2294,1.2416,1.2422,1.2428,1.2481,0,0,1.2445,1.2448,0,0,0,0,0,0,0,0,1.2027,1.204,1.2162,1.2167,1.2172,1.2259,1.2231,1.2333,1.2296,1.225,1.2294,1.2293,1.2367,1.2376,1.2401,1.2487,1.2492,1.2446,1.2449,1.2452,1.2454,0,0,0,0,0,0,0,1.2019,1.2035,1.2181,1.2164,1.217,1.2179,1.2192,1.2251,1.2312,1.2254,1.2257,1.2271,1.2369,1.2396,1.2405,1.2494,1.2446,1.2451,1.2455,1.2457,1.2627,1.2628,0,0,0,0,0,0,1.2006,1.2029,1.2177,1.2185,1.2096,1.2183,1.2198,1.2232,1.2311,1.2322,1.2271,1.2272,1.2386,1.2398,1.2409,1.2476,1.2452,1.2457,1.2461,1.2626,1.2628,1.2629,0,0,0,0,0,0,1.2002,1.2019,1.2172,1.2108,1.2128,1.2188,1.2225,1.2235,1.2262,1.2324,1.2335,1.2287,1.2386,1.2401,1.2462,1.2481,1.246,1.2465,1.2625,1.2627,1.2628,1.261,0,0,0,0,0,0,1.1996,1.2017,1.2039,1.2108,1.2131,1.2224,1.2226,1.2238,1.2271,1.2274,1.2342,1.2353,1.2386,1.2454,1.2468,1.2488,1.247,1.2624,1.2626,1.2628,1.2609,1.2611,1.2612,0,0,0,0,0,1.1989,1.2029,1.2039,1.2057,1.2159,1.2225,1.2238,1.2276,1.2273,1.2294,1.2334,1.2351,1.2476,1.246,1.2476,1.2498,1.2623,1.2625,1.2628,1.2609,1.261,1.2612,0,0,0,0,0,0,1.1961,1.2039,1.2051,1.2115,1.2163,1.2231,1.226,1.2277,1.2327,1.2327,1.2372,1.2387,1.2445,1.2478,1.2458,1.2553,1.255,1.2556,1.253,1.2532,1.2533,1.2524,1.2475,0,0,0,0,0,1.1962,1.2009,1.2075,1.2124,1.2148,1.2199,1.223,1.2255,1.2306,1.2327,1.2371,1.242,1.2471,1.2503,1.2553,1.2614,1.2629,1.2637,1.2638,1.2639,1.2644,1.2678,1.2682,1.2637,1.2637,1.2637,0,0,1.1965,1.2013,1.2041,1.212,1.216,1.2208,1.2216,1.2267,1.2302,1.2334,1.2395,1.2429,1.2487,1.2548,1.2577,1.2577,1.266,1.2642,1.2643,1.2647,1.268,1.2685,1.2688,1.2638,1.2638,1.2638,0,0,1.1995,1.2036,1.2082,1.2122,1.2182,1.2216,1.2227,1.2292,1.2316,1.2378,1.2402,1.2445,1.2531,1.2571,1.2603,1.2646,1.2662,1.2661,1.2668,1.27,1.2704,1.2707,1.2722,1.2727,1.2665,1.2665,1.2665,0,1.1991,1.2064,1.2103,1.2152,1.2186,1.2217,1.2263,1.23,1.2373,1.2396,1.2394,1.2502,1.2544,1.2614,1.2624,1.2649,1.2662,1.2653,1.27,1.2704,1.2708,1.2722,1.2728,1.2664,1.2664,1.2664,1.2664,0,1.2056,1.2107,1.2136,1.2206,1.2243,1.229,1.2336,1.2369,1.239,1.2424,1.2485,1.2535,1.2595,1.2614,1.2635,1.2687,1.2685,1.2691,1.2689,1.2711,1.2725,1.2731,1.2663,1.2664,1.2664,1.2664,0,0,1.2074,1.2163,1.2174,1.2205,1.2273,1.2313,1.2361,1.2419,1.2446,1.2495,1.2537,1.2608,1.2614,1.265,1.2676,1.2704,1.2734,1.2707,1.2709,1.271,1.2793,1.2788,1.2794,1.2745,1.2746,1.2747,1.2788,0,1.2112,1.22,1.2236,1.2306,1.2353,1.2381,1.2423,1.2469,1.2501,1.2545,1.258,1.263,1.2634,1.2656,1.2685,1.2724,1.2751,1.2721,1.2783,1.2785,1.2768,1.2801,1.2796,1.2833,1.2794,1.2795,1.2796,0,1.217,1.2219,1.2294,1.2355,1.2376,1.2413,1.2469,1.251,1.2562,1.2584,1.2622,1.2647,1.2697,1.2691,1.2761,1.274,1.2767,1.279,1.2792,1.28,1.2792,1.281,1.2845,1.2851,1.2805,1.2804,1.2804,0,1.2174,1.2259,1.2315,1.2341,1.2414,1.2439,1.247,1.2522,1.2554,1.2603,1.2624,1.2678,1.2708,1.2748,1.2786,1.2778,1.2852,1.2849,1.2871,1.287,1.2886,1.2884,1.2926,1.2903,1.2903,1.2903,1.2903,0,1.2214,1.2258,1.2317,1.2352,1.2402,1.2443,1.2491,1.2525,1.257,1.2611,1.2639,1.2676,1.2723,1.2767,1.2796,1.2849,1.2863,1.2881,1.2888,1.2879,1.2876,1.2897,1.2896,1.2904,1.2904,1.2904,1.2903,0,1.2228,1.2269,1.2332,1.2395,1.2412,1.2446,1.2501,1.2535,1.2567,1.2619,1.2633,1.2685,1.2737,1.2778,1.2847,1.2866,1.2922,1.293,1.2905,1.2908,1.2928,1.2925,1.2985,1.2994,1.2964,1.2964,1.2965,0,1.225,1.2285,1.2352,1.2381,1.2413,1.246,1.2493,1.2533,1.2566,1.2627,1.2654,1.2708,1.2754,1.2836,1.2879,1.2931,1.2941,1.2958,1.2949,1.2938,1.2941,1.2938,1.2942,1.2959,1.2959,1.2959,1.2959,0,1.2286,1.2304,1.2351,1.2405,1.2443,1.2487,1.2532,1.2554,1.2603,1.2639,1.2692,1.2728,1.2797,1.285,1.2906,1.2938,1.2957,1.2962,1.2969,1.296,1.2944,1.2952,1.2907,1.296,1.296,1.296,1.296,1.296,1.2305,1.2337,1.2389,1.244,1.2477,1.2518,1.2553,1.259,1.2635,1.2695,1.2716,1.2771,1.2821,1.2898,1.293,1.2974,1.2975,1.2986,1.2989,1.2991,1.299,1.2936,1.2984,1.2984,1.2984,1.2984,1.2984,0,1.2342,1.2376,1.2423,1.2484,1.2524,1.2537,1.2587,1.2619,1.2667,1.2712,1.2756,1.2817,1.2869,1.2915,1.2969,1.2994,1.3004,1.3007,1.3006,1.3013,1.2986,1.2974,1.2998,1.2998,1.2998,1.2998,1.2998,1.2998,1.2366,1.2421,1.2445,1.2518,1.2552,1.2606,1.2633,1.2671,1.2707,1.2774,1.2817,1.2847,1.2892,1.2949,1.2996,1.3009,1.3027,1.3028,1.3042,1.3016,1.3015,1.3013,1.3002,1.3031,1.3031,1.3065,1.3065,1.3066]}]]